TimeWET,TemperatureF,Dew PointF,Humidity,Sea Level PressureIn,VisibilityMPH,Wind Direction,Wind SpeedMPH,Gust SpeedMPH,PrecipitationIn,Events,Conditions,WindDirDegrees,DateUTC
12:00 AM,46,31,43,30.36,6,SE,1.2,,,,Clear,130,2013-01-10 00:00:00
12:00 AM,46.4,30.2,53,30.33,-9999.0,Calm,Calm,-,N/A,,Clear,0,2013-01-10 00:00:00
12:30 AM,48.2,30.2,50,30.33,-9999.0,Variable,2.3,-,N/A,,Clear,0,2013-01-10 00:30:00
1:00 AM,46.4,30.2,53,30.30,-9999.0,Variable,2.3,-,N/A,,Clear,0,2013-01-10 01:00:00
1:30 AM,48.2,30.2,50,30.30,-9999.0,Variable,2.3,-,N/A,,Clear,0,2013-01-10 01:30:00
2:00 AM,44.6,32.0,61,30.30,-9999.0,East,4.6,-,N/A,,Clear,90,2013-01-10 02:00:00
2:30 AM,41.0,32.0,70,30.30,-9999.0,East,6.9,-,N/A,,Clear,100,2013-01-10 02:30:00
3:00 AM,41,30,55,30.35,6,ESE,4.6,,,,Clear,110,2013-01-10 03:00:00
3:00 AM,41.0,30.2,65,30.30,-9999.0,ESE,4.6,-,N/A,,Clear,110,2013-01-10 03:00:00
3:30 AM,41.0,32.0,70,30.30,-9999.0,Calm,Calm,-,N/A,,Clear,0,2013-01-10 03:30:00
4:00 AM,42.8,30.2,61,30.30,-9999.0,Calm,Calm,-,N/A,,Clear,0,2013-01-10 04:00:00
4:30 AM,42.8,32.0,66,30.27,-9999.0,Calm,Calm,-,N/A,,Clear,0,2013-01-10 04:30:00
5:00 AM,41.0,30.2,65,30.27,-9999.0,Calm,Calm,-,N/A,,Clear,0,2013-01-10 05:00:00
5:30 AM,39.2,30.2,70,30.27,-9999.0,Calm,Calm,-,N/A,,Clear,0,2013-01-10 05:30:00
6:00 AM,38,30,62,30.35,6,Calm,Calm,,,,Clear,,2013-01-10 06:00:00
6:00 AM,37.4,30.2,75,30.27,-9999.0,Calm,Calm,-,N/A,,Clear,0,2013-01-10 06:00:00
6:30 AM,39.2,30.2,70,30.27,-9999.0,Calm,Calm,-,N/A,,Clear,0,2013-01-10 06:30:00
7:00 AM,35.6,30.2,81,30.27,-9999.0,Calm,Calm,-,N/A,,Clear,0,2013-01-10 07:00:00
7:30 AM,37.4,28.4,70,30.30,-9999.0,Calm,Calm,-,N/A,,Clear,0,2013-01-10 07:30:00
8:00 AM,39.2,30.2,70,30.30,-9999.0,Calm,Calm,-,N/A,,Clear,0,2013-01-10 08:00:00
8:30 AM,41.0,30.2,65,30.30,-9999.0,Calm,Calm,-,N/A,,Clear,0,2013-01-10 08:30:00
9:00 AM,46,31,43,30.34,6,Calm,Calm,,,,Clear,,2013-01-10 09:00:00
9:00 AM,46.4,30.2,53,30.30,-9999.0,Calm,Calm,-,N/A,,Clear,0,2013-01-10 09:00:00
9:30 AM,51.8,32.0,47,30.30,5.6,Calm,Calm,-,N/A,,Unknown,0,2013-01-10 09:30:00
10:00 AM,53.6,32.0,44,30.30,5.0,Calm,Calm,-,N/A,,Unknown,0,2013-01-10 10:00:00
10:30 AM,60.8,33.8,36,30.30,-9999.0,Calm,Calm,-,N/A,,Clear,0,2013-01-10 10:30:00
11:00 AM,64.4,32.0,30,30.30,-9999.0,Calm,Calm,-,N/A,,Clear,0,2013-01-10 11:00:00
11:30 AM,66.2,32.0,28,30.27,-9999.0,Calm,Calm,-,N/A,,Clear,0,2013-01-10 11:30:00
12:00 PM,68,34,18,30.23,6,Calm,Calm,,,,Clear,,2013-01-10 12:00:00
12:00 PM,68.0,33.8,28,30.27,6.2,Calm,Calm,-,N/A,,Unknown,0,2013-01-10 12:00:00
12:30 PM,68.0,33.8,28,30.24,-9999.0,Calm,Calm,-,N/A,,Clear,0,2013-01-10 12:30:00
1:00 PM,69.8,32.0,25,30.24,-9999.0,Calm,Calm,-,N/A,,Clear,0,2013-01-10 13:00:00
1:30 PM,71.6,26.6,19,30.24,-9999.0,Calm,Calm,-,N/A,,Clear,0,2013-01-10 13:30:00
2:00 PM,71.6,21.2,15,30.21,-9999.0,Calm,Calm,-,N/A,,Clear,0,2013-01-10 14:00:00
2:30 PM,71.6,21.2,15,30.21,-9999.0,North,2.3,-,N/A,,Clear,10,2013-01-10 14:30:00
3:00 PM,72,24,8,30.16,6,North,6.9,,,,Clear,0,2013-01-10 15:00:00
3:00 PM,71.6,23.0,16,30.21,-9999.0,North,5.8,-,N/A,,Clear,350,2013-01-10 15:00:00
3:30 PM,73.4,24.8,16,30.21,-9999.0,NNE,4.6,-,N/A,,Clear,20,2013-01-10 15:30:00
4:00 PM,73.4,24.8,16,30.21,-9999.0,North,5.8,-,N/A,,Clear,10,2013-01-10 16:00:00
4:30 PM,71.6,21.2,15,30.21,-9999.0,North,5.8,-,N/A,,Clear,10,2013-01-10 16:30:00
5:00 PM,71.6,19.4,14,30.21,-9999.0,North,4.6,-,N/A,,Clear,10,2013-01-10 17:00:00
5:30 PM,69.8,19.4,15,30.21,-9999.0,NNE,3.5,-,N/A,,Clear,20,2013-01-10 17:30:00
6:00 PM,65,22,10,30.18,6,NNE,5.8,,,,Clear,20,2013-01-10 18:00:00
6:00 PM,66.2,23.0,19,30.21,-9999.0,NNE,5.8,-,N/A,,Clear,20,2013-01-10 18:00:00
6:30 PM,62.6,21.2,20,30.21,-9999.0,NNE,3.5,-,N/A,,Clear,20,2013-01-10 18:30:00
7:00 PM,60.8,23.0,23,30.21,-9999.0,Variable,2.3,-,N/A,,Clear,0,2013-01-10 19:00:00
7:30 PM,57.2,23.0,27,30.21,-9999.0,ESE,6.9,-,N/A,,Clear,110,2013-01-10 19:30:00
8:00 PM,55.4,24.8,31,30.21,-9999.0,ESE,6.9,-,N/A,,Clear,110,2013-01-10 20:00:00
8:30 PM,53.6,24.8,33,30.21,-9999.0,East,4.6,-,N/A,,Clear,100,2013-01-10 20:30:00
9:00 PM,52,27,25,30.25,6,East,4.6,,,,Clear,90,2013-01-10 21:00:00
9:00 PM,51.8,26.6,38,30.21,-9999.0,East,4.6,-,N/A,,Clear,90,2013-01-10 21:00:00
9:30 PM,50.0,28.4,43,30.21,-9999.0,East,3.5,-,N/A,,Clear,80,2013-01-10 21:30:00
10:00 PM,50.0,28.4,43,30.24,-9999.0,ENE,4.6,-,N/A,,Clear,70,2013-01-10 22:00:00
10:30 PM,50.0,28.4,43,30.24,-9999.0,ESE,3.5,-,N/A,,Clear,120,2013-01-10 22:30:00
11:00 PM,48.2,28.4,46,30.24,-9999.0,ESE,3.5,-,N/A,,Clear,120,2013-01-10 23:00:00
11:30 PM,46.4,26.6,46,30.24,-9999.0,SSE,2.3,-,N/A,,Clear,150,2013-01-10 23:30:00